Theta_e
331 330 330 332 332 333 335 335 337 340 341 344 346 347 347 348 348 350 352 354 355 355 356 356 357 358 358 358 358 359 359 359 359 358 356 355 354 355 353 352 354 353 353 352 351 352 350 351 349 351 350 349 350 347 346 345 343 342 341 343 341 342 339
330 330 329 331 332 334 337 337 337 340 341 343 346 347 347 347 348 349 351 354 355 355 356 356 357 357 358 358 359 359 359 359 359 359 358 357 355 357 356 353 356 354 353 353 353 352 351 349 349 350 350 349 349 347 345 345 342 341 339 341 340 342 340
329 329 329 330 332 333 335 339 339 340 342 343 345 347 347 347 348 349 351 353 354 355 357 357 357 357 358 358 358 359 359 359 359 358 357 357 356 357 357 355 356 355 355 354 354 353 351 351 350 349 349 348 348 347 345 343 342 341 341 340 340 339 340
329 329 332 333 333 334 335 339 341 341 342 344 345 346 347 347 348 350 352 354 354 355 355 357 357 358 358 357 358 359 359 359 359 358 358 359 357 357 357 356 356 356 355 354 354 354 352 349 352 350 353 348 346 346 345 343 342 340 342 341 340 339 340
329 331 333 334 334 334 335 336 340 341 342 344 346 347 348 349 349 351 353 355 355 355 357 357 358 358 359 359 359 360 360 359 359 359 359 359 358 357 356 356 355 355 356 355 354 353 352 348 350 349 349 347 346 346 344 343 341 341 342 341 339 340 338
329 331 332 333 334 335 336 337 339 341 342 343 345 347 348 349 350 351 353 355 355 356 357 358 358 359 358 359 360 360 360 360 360 359 359 359 359 357 356 356 356 355 355 355 355 353 353 349 348 349 349 347 346 345 344 343 341 341 341 341 338 339 338
330 331 332 332 333 333 335 337 338 340 342 344 347 348 349 349 349 350 353 354 355 355 356 357 358 359 359 360 359 359 359 359 359 359 359 359 359 357 356 356 356 356 355 355 355 353 352 351 349 349 348 347 346 345 343 342 341 341 341 341 338 338 338
330 330 331 332 332 333 334 338 339 340 341 343 346 348 347 349 349 349 351 354 355 356 356 357 358 358 359 360 360 359 359 360 360 360 359 358 358 357 356 356 356 356 355 354 354 354 352 351 350 349 349 347 345 344 343 342 341 340 340 340 339 338 339
330 331 331 332 332 333 335 337 339 340 341 342 344 347 347 348 348 349 350 352 355 356 356 358 358 359 359 359 359 359 360 360 360 360 359 357 357 357 357 356 356 356 355 355 354 354 353 352 351 350 349 347 345 344 343 342 342 341 340 339 339 338 338
329 329 330 331 332 333 336 339 339 339 341 342 343 345 346 347 348 348 350 351 353 354 356 358 359 359 359 359 359 359 359 359 360 359 359 357 357 357 357 357 356 356 355 355 355 353 353 353 352 350 349 347 345 344 343 342 342 341 340 339 339 338 337
330 329 330 330 330 331 334 337 337 338 341 343 344 346 346 347 347 347 348 350 351 353 356 357 359 359 359 359 358 359 358 359 359 359 359 358 357 356 357 356 356 356 355 354 354 353 352 352 352 350 349 347 345 344 343 343 342 341 340 340 339 338 338
329 329 329 330 330 332 333 335 337 338 340 343 345 346 346 347 347 348 347 348 351 351 353 355 357 359 359 359 358 358 358 358 359 359 358 358 357 356 356 356 356 355 355 354 353 352 352 351 352 351 349 348 346 345 344 343 342 341 341 340 339 338 337
328 330 331 331 330 332 333 335 336 340 342 344 346 347 347 347 347 347 347 347 349 351 352 354 356 358 359 359 358 357 357 358 358 359 359 358 357 357 356 355 355 355 355 355 353 351 350 350 352 352 351 350 348 346 344 343 343 341 340 340 339 338 336
337 331 331 331 330 330 333 336 337 339 341 342 345 346 348 348 348 347 347 346 347 350 352 355 356 357 358 358 357 356 357 358 359 359 359 359 357 356 355 354 353 354 355 356 354 353 351 350 351 352 352 351 349 347 345 343 342 342 340 340 339 338 336
330 331 329 329 329 332 335 336 338 339 340 341 342 344 347 348 348 348 347 347 347 350 352 354 356 356 357 357 356 356 356 357 358 359 359 358 357 355 354 354 353 353 354 355 355 355 354 353 352 353 352 351 349 347 345 343 343 342 341 339 339 338 337
330 331 331 331 333 335 336 338 339 341 342 342 342 343 346 348 348 347 347 346 347 348 350 352 354 355 355 356 356 356 356 356 357 358 359 358 357 356 355 354 354 353 353 355 355 354 354 353 354 354 353 351 349 347 346 344 344 338 329 333 339 338 338
334 335 338 338 339 338 337 337 339 341 343 345 346 345 346 348 349 349 348 347 347 347 348 349 352 353 352 354 356 356 356 356 356 357 357 358 358 357 355 354 354 353 352 354 355 355 354 354 354 354 353 351 349 347 346 345 343 330 327 330 333 338 338
336 337 339 342 342 343 342 342 343 343 345 348 349 348 347 348 349 349 348 348 347 347 347 347 349 350 350 352 355 356 357 357 357 357 357 358 358 357 356 355 353 352 351 353 354 354 354 353 354 353 353 351 349 347 346 345 333 326 327 329 329 334 339
327 334 339 340 341 341 342 345 350 351 349 350 351 351 349 349 349 349 349 348 348 347 346 345 346 348 348 350 353 356 358 358 358 358 357 357 358 358 356 355 353 352 353 354 355 355 354 353 353 352 351 350 348 347 346 345 330 325 325 327 328 331 336
319 323 330 339 341 343 344 344 348 356 355 353 353 354 352 351 350 350 350 349 347 345 344 343 344 345 347 348 351 355 358 359 359 359 358 358 357 357 357 355 354 355 356 356 356 355 354 353 352 351 349 348 348 346 346 346 328 324 323 325 326 328 333
327 329 327 339 342 344 344 344 345 351 354 355 356 355 354 351 350 350 349 348 344 343 343 341 343 344 345 347 351 355 357 358 359 359 359 359 358 358 358 357 356 357 356 355 354 353 352 351 350 350 349 349 348 346 346 347 324 321 321 322 323 326 334
326 328 328 332 343 345 345 346 346 350 353 356 356 355 355 353 352 351 350 349 345 342 340 340 343 343 344 345 351 355 358 359 359 359 360 360 360 359 359 357 357 356 355 354 353 353 352 351 350 349 348 349 348 346 343 333 318 320 320 320 321 327 338
321 322 322 327 335 345 349 349 348 350 352 354 355 355 355 355 354 353 352 349 347 343 340 339 342 344 344 345 350 356 359 360 360 361 362 361 360 359 358 357 356 356 355 353 352 351 350 350 349 349 348 347 345 339 333 328 320 318 317 318 320 328 338
315 316 320 321 328 346 350 350 350 351 352 353 353 354 355 356 355 354 353 351 350 348 343 339 342 347 346 346 352 358 360 362 362 362 361 360 358 357 356 356 356 355 355 353 351 350 350 349 347 347 347 346 341 337 332 329 320 315 314 317 321 329 335
314 315 321 324 323 347 351 351 351 352 355 354 353 354 355 356 355 354 353 352 352 352 350 344 344 350 348 349 356 361 363 364 363 362 360 358 357 356 354 354 354 355 355 353 351 347 346 347 347 345 345 344 340 330 331 329 319 312 314 317 320 331 334
330 333 334 336 338 335 353 355 355 355 355 354 353 355 356 355 355 353 352 352 353 352 351 351 353 355 353 357 363 365 365 364 361 360 359 357 355 354 354 354 354 354 352 349 345 342 342 343 342 340 337 337 336 333 331 326 322 319 314 316 319 324 334
335 334 332 334 339 345 350 357 356 356 357 356 355 355 356 355 354 352 353 353 352 351 352 357 360 360 363 364 365 364 363 362 360 358 357 356 354 354 353 352 352 350 347 343 341 340 340 340 338 336 334 334 333 331 328 326 324 321 313 314 317 320 324
341 338 338 344 351 346 341 353 355 356 358 358 357 356 356 354 353 353 353 353 352 352 355 362 363 364 365 364 363 362 360 359 358 357 356 354 353 351 349 349 349 346 342 340 339 338 337 337 334 333 332 332 331 330 328 326 323 322 314 314 314 316 320
342 342 340 340 345 348 350 346 351 355 357 359 359 358 357 355 353 353 353 353 353 355 360 364 365 365 364 362 361 359 358 357 355 355 354 352 351 349 347 346 343 341 340 338 336 335 333 332 332 330 329 329 330 329 328 327 326 320 320 312 311 310 315
338 339 341 344 348 349 350 352 350 352 355 360 360 359 357 356 353 353 352 353 356 360 363 364 365 364 361 358 358 357 355 355 355 354 352 351 350 347 343 340 339 338 337 335 334 332 331 330 330 329 328 328 329 329 327 326 326 320 317 316 311 309 310
338 339 341 340 339 339 342 346 344 341 344 354 359 358 357 357 354 352 351 355 360 362 362 362 362 360 358 357 355 353 353 354 354 352 351 349 347 342 339 338 337 335 334 334 332 331 330 329 330 328 328 327 327 328 328 327 326 323 319 316 312 310 309
334 336 340 343 341 337 336 338 340 340 338 339 344 353 356 357 356 352 354 361 361 362 362 360 358 356 355 354 353 352 352 351 350 349 348 346 343 341 339 337 336 334 333 332 332 331 330 329 329 329 328 328 328 328 329 330 327 324 322 320 316 315 312
331 332 334 338 339 338 337 339 339 338 339 339 340 339 353 359 358 359 362 361 362 361 359 357 355 352 351 350 349 349 349 347 346 345 344 342 341 340 338 337 335 334 333 332 331 330 329 329 329 329 328 328 328 329 330 331 329 326 322 321 318 318 316
331 332 333 337 338 339 337 335 334 335 336 335 336 338 339 347 356 362 362 361 360 357 355 352 351 350 349 347 346 344 344 344 345 342 340 340 339 338 336 335 335 334 332 332 331 330 329 329 329 328 328 328 329 330 330 330 330 327 323 321 320 319 317
332 332 332 334 337 338 338 336 332 333 335 334 335 337 338 341 342 343 345 348 348 345 343 342 342 342 343 344 343 341 341 341 340 337 330 321 315 311 314 332 336 332 323 318 325 334 332 330 330 330 330 330 331 330 329 330 329 330 319 325 316 320 320
332 332 332 335 337 338 339 338 336 337 337 336 336 335 336 338 342 343 345 345 343 343 342 343 343 343 342 341 340 339 338 334 330 327 326 324 320 317 313 304 299 310 324 319 311 305 307 321 331 333 332 332 331 330 331 330 332 317 311 309 308 308 310
332 332 333 335 335 336 337 339 340 336 333 334 336 337 338 339 343 343 343 344 345 344 342 341 341 341 340 338 337 335 334 331 328 327 325 324 322 320 318 315 309 297 296 302 303 299 296 296 303 310 321 329 325 313 311 320 312 307 307 306 305 305 306
326 332 334 335 336 337 337 338 339 335 333 335 337 336 336 339 340 341 341 342 342 343 344 342 340 338 337 336 335 334 333 331 329 328 327 326 325 322 320 318 315 312 300 295 298 298 295 295 296 303 310 314 317 317 316 309 306 306 305 305 304 304 303
Wind_Speed
18 16 13 13 15 13 15 18 18 17 18 18 18 20 19 17 16 15 15 17 18 17 17 17 16 14 15 14 14 13 13 12 10 10 10 9 8 9 10 9 10 10 10 10 9 10 11 10 11 11 10 8 8 8 7 6 6 5 4 6 6 6 7
16 16 15 13 13 13 14 17 16 16 17 17 17 19 18 18 17 16 16 17 18 19 18 17 16 15 15 14 13 13 14 13 12 10 9 9 8 8 11 11 11 11 10 9 10 9 9 11 10 10 10 9 7 9 8 7 6 6 5 6 6 6 6
17 15 14 14 13 14 13 13 15 16 17 16 16 17 19 18 17 18 17 17 18 18 17 17 16 15 14 14 13 14 14 13 12 12 12 11 12 11 10 11 10 11 11 11 10 9 8 10 8 10 10 10 8 9 9 7 7 7 7 6 6 6 5
17 15 15 16 17 15 15 14 17 16 15 17 18 19 18 18 17 16 16 18 19 18 18 18 17 16 14 15 15 14 14 14 14 13 13 12 12 11 10 10 10 10 11 11 11 9 9 8 8 10 11 10 9 9 8 8 7 8 8 7 7 7 6
20 19 17 16 16 15 14 14 15 16 18 19 18 17 18 17 17 16 15 16 19 20 20 19 16 15 14 15 12 12 14 14 13 13 12 11 12 11 11 12 12 12 12 11 11 10 9 9 8 10 10 10 10 9 9 8 8 8 8 8 7 7 7
19 18 17 16 16 16 16 17 18 19 19 18 18 18 17 18 17 18 17 16 16 16 16 16 17 15 15 15 13 12 12 13 13 13 13 12 12 12 12 13 13 12 12 13 11 11 10 10 9 10 11 10 11 10 9 9 9 10 9 8 8 7 7
17 18 18 18 17 16 17 18 18 17 17 18 16 15 16 18 20 18 16 17 18 18 18 18 18 17 15 14 14 14 15 14 14 15 13 13 13 13 12 12 12 12 12 10 11 11 11 11 11 10 10 11 11 11 10 10 10 10 9 9 8 8 8
19 18 19 19 18 19 17 16 17 18 17 14 15 17 20 19 18 19 19 18 18 18 18 19 18 16 15 14 14 15 15 15 14 14 13 13 13 13 14 13 12 12 10 12 11 11 12 12 11 10 10 11 11 11 11 11 12 11 10 10 10 9 8
22 23 21 21 20 18 16 15 17 18 18 18 18 19 20 18 19 20 19 19 18 19 19 19 18 16 15 14 14 16 15 15 15 14 15 15 13 15 14 13 12 12 12 12 11 11 12 12 12 11 11 10 11 11 12 12 12 11 11 11 11 11 9
15 14 15 15 15 15 15 14 13 12 15 17 16 16 19 19 18 17 18 19 18 20 20 19 17 16 15 15 15 16 15 16 15 16 15 15 14 16 15 14 13 12 12 12 11 12 11 12 12 12 12 12 12 11 12 12 12 11 11 12 12 11 11
18 17 16 16 15 14 11 10 12 14 15 16 16 16 16 16 17 18 18 17 18 18 19 18 16 17 16 17 17 16 16 17 16 17 17 17 15 17 16 15 13 12 13 12 13 13 11 10 11 12 12 13 13 13 12 13 12 12 12 11 11 12 11
20 20 16 12 12 9 12 14 13 12 10 11 13 15 15 16 17 17 17 18 17 17 17 17 16 17 17 17 17 17 18 18 17 18 18 18 17 17 16 15 14 13 12 13 14 13 12 12 11 12 13 13 13 13 12 12 12 12 12 12 11 11 11
16 16 15 16 14 12 13 12 15 15 14 14 15 14 14 16 17 17 17 17 17 17 17 16 16 16 17 17 18 17 18 18 18 17 18 18 17 15 15 15 15 15 14 13 14 13 13 13 13 11 12 12 11 11 11 11 11 11 11 11 11 11 11
15 13 13 15 16 17 16 17 16 14 14 14 14 14 13 14 16 17 17 18 17 16 16 14 16 16 16 17 18 18 19 18 18 17 17 17 16 15 15 15 14 14 13 12 13 14 13 13 13 11 10 10 10 10 9 9 9 9 10 9 10 11 10
18 19 18 16 15 13 12 12 11 13 13 13 14 14 14 14 15 14 15 16 17 17 18 16 16 17 17 17 18 18 18 17 16 15 15 16 15 15 15 15 14 13 12 12 13 11 11 9 10 10 9 9 9 8 8 9 9 9 9 10 10 11 11
14 14 14 15 13 13 13 14 15 15 15 14 15 15 14 14 15 16 17 18 18 17 17 16 17 17 17 18 18 17 17 17 15 15 15 15 16 16 15 14 14 13 12 12 12 11 9 9 9 11 11 10 9 9 9 9 8 11 16 14 11 11 11
11 12 11 11 10 11 12 13 13 12 13 14 16 17 16 16 16 17 18 17 18 18 17 17 17 18 18 18 17 17 16 15 15 15 16 16 15 14 14 14 12 11 10 9 10 11 9 9 9 11 10 11 11 11 10 10 10 16 16 17 17 13 10
14 16 16 13 14 14 14 15 15 14 15 16 17 17 16 16 16 16 18 18 19 19 17 17 18 19 18 18 17 16 16 15 15 15 16 15 15 14 13 12 11 10 9 8 10 10 9 10 10 10 10 10 11 12 11 10 13 17 18 19 19 16 11
9 12 15 18 17 16 15 14 13 14 16 16 16 17 18 18 16 17 18 18 18 17 17 17 18 19 18 17 17 18 17 16 16 16 15 15 14 13 12 12 10 9 9 11 10 10 11 10 9 9 10 10 11 11 11 10 14 18 20 20 20 19 13
13 15 14 15 17 16 15 14 13 13 15 14 16 18 18 17 18 19 19 18 16 17 18 17 16 18 19 18 18 18 17 17 17 17 16 15 14 12 12 12 11 9 9 8 9 10 9 9 9 9 10 10 11 11 11 12 15 20 20 20 19 18 14
5 4 6 12 12 13 14 15 13 12 11 12 14 14 14 15 16 15 15 15 16 17 18 17 16 17 18 18 18 18 17 17 17 17 15 14 13 13 13 12 10 10 9 9 9 9 9 9 8 8 10 11 11 11 12 10 15 19 19 19 17 15 13
7 8 7 8 14 15 12 12 13 14 15 14 14 13 14 16 15 15 16 16 17 16 17 17 15 16 17 18 17 18 18 18 17 15 14 14 13 13 13 12 12 11 9 8 8 7 8 7 8 9 9 10 10 8 5 5 15 16 17 16 16 18 9
4 4 5 6 11 12 14 17 17 17 16 14 13 14 15 14 15 15 15 16 15 16 16 16 16 16 18 18 17 17 17 17 17 15 14 14 14 14 13 12 11 10 9 10 9 9 9 9 8 7 6 4 4 6 5 5 12 18 18 18 18 14 9
5 5 5 6 6 14 15 13 14 14 14 14 15 16 15 14 15 15 15 16 16 16 15 16 16 16 17 17 17 17 16 16 16 16 15 15 15 14 12 11 9 10 9 10 10 9 7 6 5 4 5 6 7 8 8 6 9 14 17 19 20 15 10
6 3 2 1 3 8 14 16 18 17 16 17 17 15 13 14 16 16 15 16 17 16 15 16 16 16 17 18 17 16 16 15 16 16 16 15 14 13 13 12 11 8 7 7 6 6 5 5 6 5 5 7 8 11 11 7 7 12 17 18 18 13 9
1 7 5 5 3 4 13 13 12 13 15 16 17 17 17 16 15 16 16 17 16 17 17 16 16 16 16 15 14 15 15 15 16 16 16 15 13 12 11 10 9 8 8 7 7 7 7 7 7 7 5 5 7 7 7 8 7 9 14 16 17 15 10
2 5 5 4 1 2 9 11 14 16 18 17 17 16 17 17 16 16 17 16 16 18 18 15 14 14 14 15 15 15 16 15 16 16 14 14 13 12 10 9 10 9 9 9 8 8 8 8 7 7 6 5 6 6 6 8 10 11 17 17 17 16 13
11 5 3 4 6 4 5 13 15 16 18 16 16 15 15 16 17 18 17 16 18 18 15 13 14 15 15 16 16 16 16 15 14 14 13 13 13 12 10 10 11 10 11 9 9 10 9 8 7 7 6 5 5 4 5 8 14 11 13 17 17 16 14
12 15 15 6 6 8 3 10 16 18 17 14 15 15 16 17 18 16 16 18 20 15 12 14 14 16 16 16 16 16 16 15 16 14 12 12 14 14 13 11 11 11 11 10 10 10 9 8 8 8 7 6 5 4 5 6 8 15 12 12 13 13 11
12 12 15 17 13 9 6 5 3 8 12 13 13 15 15 18 18 16 16 17 13 12 14 15 14 15 16 15 15 15 14 15 15 14 13 14 13 13 13 12 11 10 9 10 10 9 9 8 8 8 8 8 6 6 6 6 7 9 13 12 12 12 11
12 12 12 13 12 13 13 12 14 15 15 8 10 16 14 15 16 17 18 12 12 16 17 17 17 17 16 16 15 15 14 13 13 13 13 13 14 13 12 12 12 11 9 10 9 9 9 8 8 9 8 8 8 7 7 7 6 6 8 12 13 12 11
16 17 17 17 15 15 11 7 12 12 12 18 25 17 10 12 15 18 14 13 15 16 17 18 17 17 17 15 14 14 14 14 13 13 13 12 11 12 11 13 12 11 9 9 8 8 9 8 8 8 8 7 7 7 7 7 7 7 6 7 7 7 9
13 13 16 16 14 12 10 7 10 10 12 8 12 20 21 6 11 13 13 15 16 17 18 18 18 17 16 16 15 15 15 15 13 12 12 12 11 10 10 9 9 10 9 9 9 8 7 8 8 7 7 8 8 7 7 7 7 7 6 6 6 6 5
13 15 14 13 14 11 9 9 8 10 9 7 8 10 17 22 8 6 15 16 16 17 18 19 19 18 16 17 16 13 14 14 17 15 11 11 11 11 10 8 8 9 9 9 9 9 8 8 8 8 8 8 8 8 7 7 7 7 7 7 7 7 6
11 11 13 16 14 12 10 7 6 7 9 9 9 13 13 14 16 19 18 15 14 15 16 15 18 18 16 13 12 12 13 12 11 10 10 10 11 9 6 6 8 8 6 4 2 8 10 9 8 8 7 8 8 9 8 7 7 8 8 9 11 10 9
10 11 11 10 10 12 9 5 5 5 10 9 10 11 13 8 11 8 13 16 15 18 19 14 16 16 13 11 11 12 12 10 10 10 10 11 11 11 10 14 15 9 6 4 4 6 3 5 7 7 7 7 7 7 11 10 8 11 16 15 15 15 16
8 8 10 11 13 14 11 9 5 4 8 8 9 9 7 9 5 11 14 13 13 14 15 14 11 10 11 11 10 11 11 11 10 9 9 10 10 10 11 9 11 16 15 10 7 8 11 10 4 6 9 10 6 3 6 8 15 17 16 16 16 17 16
13 10 10 12 12 12 13 13 4 2 5 5 5 5 7 8 7 8 10 15 12 9 13 14 13 10 8 10 10 11 11 10 10 10 10 9 10 10 10 10 10 8 11 11 11 13 14 13 11 7 12 16 14 9 3 4 14 18 17 17 17 16 16
Wind_Direction
188 190 186 186 191 187 184 189 185 183 183 182 183 183 181 180 180 175 178 181 182 182 184 184 186 186 187 187 186 185 183 184 183 183 185 184 180 176 178 176 171 173 173 175 181 185 189 185 183 180 180 180 175 183 178 169 171 175 145 149 156 154 166
187 189 189 184 183 184 181 187 185 181 184 184 182 182 181 181 178 177 179 180 182 182 183 185 186 188 187 186 186 185 184 184 182 183 183 182 183 179 179 179 173 178 178 179 185 190 184 189 179 179 178 183 171 177 179 171 162 165 158 151 147 147 161
189 186 187 184 182 185 180 179 184 184 183 182 180 181 185 182 179 177 176 178 181 182 182 185 188 187 187 186 186 188 186 182 182 184 184 184 184 180 179 178 176 177 183 183 186 190 184 185 179 177 177 180 172 173 179 170 165 159 162 160 155 157 157
186 185 181 185 188 189 186 177 184 186 182 180 183 184 182 181 178 178 178 176 178 179 183 186 186 187 187 187 188 188 187 185 184 186 187 184 185 181 176 180 181 178 182 188 187 187 190 181 174 178 178 178 176 172 175 174 168 166 160 158 164 169 172
181 181 183 186 188 191 192 189 186 185 185 184 181 179 181 178 176 178 178 177 178 182 184 183 185 187 188 188 189 188 187 185 185 188 188 187 184 182 181 183 186 186 184 185 187 186 184 185 176 177 180 177 179 175 177 171 170 170 167 162 167 172 177
181 182 183 184 190 194 195 197 194 189 186 184 180 179 177 176 177 180 178 176 179 181 180 182 185 187 190 189 187 186 186 188 187 187 189 187 184 186 187 189 190 188 185 187 184 186 183 185 183 177 178 180 179 180 177 174 175 174 170 168 173 174 180
183 182 185 187 189 192 196 198 195 193 189 186 178 172 172 177 182 179 176 178 178 178 182 186 187 187 190 186 189 184 187 188 188 190 190 188 186 188 192 194 192 191 189 180 186 183 183 185 187 180 177 181 183 183 181 178 179 178 172 171 176 179 181
178 185 189 187 187 193 193 191 193 191 188 182 173 174 178 180 178 179 181 177 178 180 184 187 188 189 186 187 187 189 188 189 191 190 189 189 188 192 195 198 193 189 185 188 186 182 185 185 188 187 179 179 186 186 184 182 180 181 175 175 178 181 183
182 184 185 186 188 190 190 186 184 182 181 183 179 179 178 177 180 182 179 177 180 181 186 189 190 186 184 186 187 190 189 188 192 192 191 190 191 196 197 199 196 190 189 189 188 184 188 188 188 188 187 184 186 186 187 185 182 182 181 180 181 184 186
183 188 189 187 186 186 186 185 177 171 179 184 182 176 177 181 181 178 181 181 181 184 186 188 187 185 185 187 189 188 187 191 193 193 191 193 195 198 198 197 197 194 193 190 189 189 192 189 189 188 190 193 191 188 186 187 185 182 184 184 184 185 188
179 183 187 190 186 184 172 160 170 181 182 184 183 179 176 175 176 179 182 181 185 185 186 187 185 185 186 188 189 188 191 193 193 193 194 196 197 200 198 198 197 195 195 191 193 194 191 192 189 190 192 196 195 193 189 188 186 184 185 186 186 187 189
177 183 183 175 174 155 163 174 183 182 181 181 181 178 178 176 176 178 180 185 183 184 186 186 184 187 186 188 189 191 193 195 194 195 195 197 199 200 199 198 198 197 196 195 195 193 194 192 192 193 196 198 196 196 194 188 189 187 185 185 185 187 190
176 173 167 168 167 170 172 176 179 182 178 177 181 180 178 177 177 177 178 181 184 185 185 184 185 186 188 189 192 193 196 195 196 195 195 197 200 198 198 200 200 199 198 196 197 195 195 195 195 197 196 197 195 195 193 190 189 189 186 184 184 186 189
167 173 175 171 173 172 176 182 181 174 175 174 179 179 176 180 178 176 177 181 183 182 183 184 185 187 189 189 192 195 197 197 196 194 196 198 199 198 199 202 202 202 199 195 199 200 198 195 195 195 195 195 196 193 187 187 189 190 189 182 182 185 192
166 172 174 175 174 172 174 176 178 180 177 177 177 179 178 178 180 177 178 180 182 183 186 181 182 187 189 190 194 196 197 197 195 194 195 197 198 200 201 202 203 202 197 197 202 204 200 192 186 186 193 190 187 183 181 186 192 191 187 183 182 188 195
161 167 168 174 177 178 178 178 183 184 180 179 179 182 183 180 181 181 180 182 183 185 183 178 183 185 188 191 195 196 196 195 192 192 194 195 198 200 199 201 202 200 198 197 199 198 192 189 181 186 186 182 179 179 182 188 194 191 185 186 184 188 202
158 163 168 177 181 184 188 187 184 180 179 180 183 185 184 184 184 184 183 182 183 186 183 181 182 186 189 192 192 193 194 192 192 191 195 197 198 198 198 200 199 198 195 191 189 189 186 183 181 185 181 180 179 183 188 191 195 185 182 186 188 193 189
164 169 170 173 181 184 187 188 186 183 185 187 188 185 185 186 185 182 185 183 186 186 182 183 184 186 190 191 188 190 190 190 190 192 195 195 197 195 196 195 195 193 184 176 177 181 178 185 183 176 174 178 181 186 191 196 188 180 182 186 191 189 189
169 175 177 175 185 189 188 184 183 188 191 190 188 188 190 185 181 186 188 187 187 181 183 185 187 187 189 189 187 189 188 188 189 191 192 194 193 192 189 190 189 181 173 175 175 170 179 185 168 170 170 174 180 191 194 198 184 181 184 187 191 186 177
189 183 189 190 184 185 186 184 187 189 189 190 193 192 190 183 184 189 188 186 179 180 187 186 186 188 189 188 188 188 187 187 187 189 190 188 188 184 182 184 184 175 165 155 159 169 171 170 163 161 169 175 183 191 195 199 184 181 181 186 187 181 168
223 214 171 187 194 189 186 191 187 180 183 190 194 194 187 186 189 186 185 180 182 184 186 188 184 188 188 190 189 186 187 186 186 187 185 183 180 178 179 177 168 159 156 153 155 156 160 159 155 161 170 179 185 191 196 199 171 176 178 183 178 165 162
192 182 179 182 190 192 192 190 185 184 189 192 189 187 186 187 184 180 185 184 184 186 187 188 184 185 187 190 188 187 186 184 183 181 178 174 172 172 170 164 160 153 150 143 146 152 154 161 163 172 177 181 180 178 164 132 160 167 172 169 163 166 157
198 218 217 194 181 194 190 186 190 190 190 188 186 184 190 185 180 180 181 185 187 187 188 188 186 186 186 190 188 185 182 180 177 174 170 165 163 163 158 155 153 146 143 145 155 160 166 172 178 178 176 158 123 107 113 153 173 170 171 164 159 157 160
200 197 211 229 190 189 188 193 195 197 191 185 186 189 187 181 179 177 180 186 188 186 189 188 190 187 184 187 186 181 177 175 170 165 161 160 160 157 155 150 147 150 151 150 158 164 168 160 154 144 144 150 136 143 148 168 196 174 162 160 162 154 149
207 182 118 303 252 189 194 191 193 194 187 183 188 189 185 182 181 179 183 186 189 189 189 190 190 184 183 184 179 172 169 164 161 160 158 156 154 153 150 150 152 148 140 137 123 114 115 128 129 104 105 129 143 151 146 159 177 178 161 154 148 143 143
167 125 142 119 81 181 199 194 189 187 188 190 192 185 181 181 183 185 184 187 188 192 193 188 186 183 179 169 162 160 156 155 155 155 153 150 147 146 142 140 138 139 126 110 109 107 100 98 102 107 105 121 135 139 138 139 149 157 153 148 147 144 142
150 154 118 97 30 98 175 194 188 190 193 193 191 187 183 179 182 186 186 184 187 194 196 185 172 163 158 153 151 151 151 152 152 149 146 144 142 137 134 134 130 125 118 114 111 110 108 107 108 108 110 115 120 126 142 151 152 162 161 156 148 143 143
333 344 53 35 40 29 172 190 194 194 196 191 187 186 185 181 184 187 184 182 189 195 188 167 159 153 149 149 149 146 144 143 142 140 138 137 134 131 125 123 121 118 116 118 119 117 115 115 113 113 113 108 114 133 146 163 156 154 169 161 157 154 148
13 359 345 5 30 15 19 201 193 193 192 187 186 185 185 185 187 187 183 185 190 181 162 155 153 148 146 144 143 143 141 141 140 137 136 137 134 130 126 119 115 117 120 120 118 118 119 120 123 123 122 116 121 130 143 154 159 157 162 166 158 160 149
10 15 11 358 358 5 27 17 275 210 183 181 186 191 190 188 183 182 183 189 177 152 147 147 143 140 139 139 139 138 137 136 133 131 132 132 129 123 118 118 119 120 122 122 123 125 127 130 130 129 132 138 144 148 147 154 151 168 163 163 172 173 172
7 15 16 13 6 358 7 18 26 15 354 327 215 194 195 188 181 179 180 171 150 149 147 145 141 138 137 136 135 132 133 129 125 125 126 126 124 120 119 119 123 124 130 126 128 132 134 142 143 145 152 148 153 151 148 149 152 157 178 172 175 176 184
16 11 14 16 11 6 332 27 53 46 31 6 342 303 228 187 178 174 169 154 151 147 142 137 134 132 131 130 128 125 121 116 113 115 117 115 116 122 130 134 134 133 136 132 132 136 140 147 149 152 147 152 154 152 146 148 152 162 171 179 166 174 188
17 19 16 16 16 5 354 25 55 60 69 45 350 351 323 247 174 160 150 148 145 140 136 134 130 127 125 124 121 120 120 116 118 116 113 114 113 117 122 125 127 131 133 136 137 138 141 147 153 150 153 160 155 146 144 145 149 150 159 160 158 171 164
15 18 13 19 17 17 14 16 47 70 65 63 55 41 0 330 332 144 144 141 138 134 130 129 128 124 120 117 117 117 113 112 116 117 118 118 121 123 121 120 128 133 139 144 145 146 152 155 160 163 166 161 144 141 145 155 150 155 163 167 163 159 154
20 27 25 20 14 13 14 14 42 41 53 60 62 64 52 355 0 6 21 39 60 76 71 72 81 91 93 94 98 104 108 113 115 112 107 93 73 54 49 106 130 119 80 27 117 156 156 163 164 166 167 156 146 146 155 157 175 185 169 166 164 160 161
16 21 28 30 28 19 16 18 351 28 50 50 51 65 76 29 335 20 53 71 75 87 90 87 93 99 106 112 116 115 110 106 105 111 114 112 110 104 82 50 46 41 100 127 38 42 59 134 164 169 164 152 148 154 163 180 183 145 152 158 165 169 173
35 19 11 23 40 26 13 7 14 64 73 54 55 61 67 83 19 68 77 73 86 91 104 113 117 118 120 120 123 121 116 116 115 113 112 114 112 107 105 90 52 50 52 63 63 68 69 62 97 184 159 139 145 53 31 131 135 153 162 164 170 171 171
16 16 20 17 25 29 16 0 21 55 96 102 58 99 113 117 117 104 128 134 132 140 127 119 115 119 124 122 122 114 113 115 117 119 117 116 115 115 118 113 108 69 42 48 63 68 68 62 53 82 131 138 136 131 36 129 158 163 166 170 169 170 170